Rothschild, WI

10:01 AM CST on February 07, 2016 (GMT -0600)
Wausau Downtown

Weather History for KAUW - February, 2014

Change the Weather History Date:

Thursday, February 13, 2014

  Actual Average Record
Temperature  
Mean Temperature 13 °F 18 °F  
Max Temperature 23 °F 27 °F 50 °F (2011)
Min Temperature 3 °F 9 °F -25 °F (1905)
Degree Days  
Heating Degree Days 52 47  
Month to date heating degree days 824 625  
Since 1 July heating degree days 6134 5475  
Cooling Degree Days 0 0  
Month to date cooling degree days 0 0  
Year to date cooling degree days 0 0  
Moisture  
Dew Point 13 °F    
Average Humidity 89    
Maximum Humidity 100    
Minimum Humidity 77    
Precipitation  
Precipitation 0.15 in 0.03 in 1.18 in (1938)
Month to date precipitation 0.21 0.39  
Year to date precipitation 1.76 1.41  
Snow  
Snow 2.20 in 0.30 in 4.50 in (1906)
Month to date snowfall 3.3 4.5  
Since 1 July snowfall 55.3 40.2  
Snow Depth 21.00 in    
Sea Level Pressure  
Sea Level Pressure 29.58 in    
Wind  
Wind Speed 10 mph (SSE)    
Max Wind Speed 22 mph    
Max Gust Speed 26 mph    
Visibility 3 miles    
Events Fog , Snow    
T = Trace of Precipitation, MM = Missing Value Source: NWS Daily Summary

Daily Weather History Graph

Daily Weather History Graph

Search for Another Location

Airport or City:

Trip Planner

Search our weather history database for the weather conditions in past years. The results will help you decide how hot, cold, wet, or windy it might be!

Date:

Astronomy

Feb. 13, 2014 Rise Set
Actual Time 7:02 AM CST 5:23 PM CST
Civil Twilight 6:31 AM CST 5:54 PM CST
Nautical Twilight 5:57 AM CST 6:28 PM CST
Astronomical Twilight 5:23 AM CST 7:02 PM CST
Moon 4:32 PM CST (2/13) 5:56 AM CST (2/13)
Length of Visible Light 11h 22m
Length of Day
10h 21m
Waxing Gibbous, 99% of the Moon is Illuminated
Feb 13
Waxing Gibbous
Feb 14
Full
Feb 22
Last Quarter
Mar 1
New
Mar 8
First Quarter

Hourly Weather History & Observations

Time (CST) Temp. Windchill Dew Point Humidity Pressure Visibility Wind Dir Wind Speed Gust Speed Precip Events Conditions
12:34 AM 3.9 °F -6.9 °F 1.0 °F 88% 29.87 in 5.0 mi East 5.8 mph - N/A   Partly Cloudy
12:54 AM 3.9 °F -8.2 °F 1.0 °F 88% 29.95 in 5.0 mi East 6.9 mph - N/A   Partly Cloudy
1:54 AM 5.0 °F -4.1 °F 3.0 °F 92% 29.93 in 5.0 mi East 4.6 mph - N/A   Clear
2:54 AM 5.0 °F -5.6 °F 3.0 °F 92% 29.91 in 5.0 mi ESE 5.8 mph - N/A   Partly Cloudy
3:10 AM 3.9 °F -8.2 °F 1.0 °F 88% 29.81 in 5.0 mi ESE 6.9 mph - N/A   Mostly Cloudy
3:20 AM 3.9 °F -5.3 °F 1.0 °F 88% 29.80 in 5.0 mi East 4.6 mph - N/A   Scattered Clouds
3:28 AM 5.0 °F -2.1 °F 1.9 °F 87% 29.80 in 5.0 mi ESE 3.5 mph - N/A   Mostly Cloudy
3:54 AM 9.0 °F -5.9 °F 6.1 °F 88% 29.85 in 5.0 mi SE 11.5 mph - N/A   Overcast
4:20 AM 9.0 °F -2.2 °F 6.1 °F 88% 29.76 in 5.0 mi South 6.9 mph - N/A   Overcast
4:27 AM 9.0 °F -4.2 °F 7.0 °F 92% 29.76 in 5.0 mi SSE 9.2 mph - N/A   Overcast
4:54 AM 10.0 °F -3.7 °F 8.1 °F 92% 29.82 in 5.0 mi SSE 10.4 mph - N/A   Overcast
5:21 AM 10.9 °F -3.4 °F 8.1 °F 88% 29.72 in 6.0 mi SSE 11.5 mph - N/A   Overcast
5:54 AM 12.0 °F -2.7 °F 10.0 °F 92% 29.79 in 3.0 mi SSE 12.7 mph - N/A   Overcast
6:13 AM 12.0 °F -2.7 °F 10.0 °F 92% 29.68 in 3.0 mi SE 12.7 mph - N/A   Overcast
6:33 AM 12.0 °F -2.0 °F 10.0 °F 92% 29.67 in 2.5 mi SSE 11.5 mph - N/A   Overcast
6:54 AM 12.0 °F -2.7 °F 10.0 °F 92% 29.75 in 2.5 mi SE 12.7 mph - N/A   Overcast
7:01 AM 12.0 °F -2.0 °F 10.0 °F 92% 29.66 in 3.0 mi SE 11.5 mph - N/A   Overcast
7:21 AM 12.0 °F -3.4 °F 10.0 °F 92% 29.63 in 1.8 mi SE 13.8 mph - 0.00 in Snow Light Snow
7:30 AM 12.0 °F -2.0 °F 10.0 °F 92% 29.62 in 0.2 mi SE 11.5 mph - 0.00 in Fog , Snow Snow
7:37 AM 12.0 °F -2.7 °F 10.0 °F 92% 29.62 in 0.2 mi SE 12.7 mph - 0.00 in Fog , Snow Snow
7:46 AM 12.9 °F -1.6 °F 10.0 °F 88% 29.62 in 0.2 mi SE 12.7 mph - 0.01 in Fog , Snow Snow
7:54 AM 12.9 °F -1.6 °F 10.0 °F 88% 29.72 in 0.2 mi SSE 12.7 mph - 0.01 in Fog , Snow Heavy Snow
8:17 AM 12.9 °F -0.9 °F 10.0 °F 88% 29.61 in 0.8 mi SSE 11.5 mph - 0.01 in Snow Light Snow
8:30 AM 12.9 °F -2.2 °F 10.0 °F 88% 29.60 in 0.5 mi SSE 13.8 mph - 0.01 in Fog , Snow Light Snow
8:45 AM 14.0 °F -0.2 °F 10.9 °F 88% 29.58 in 1.0 mi SE 12.7 mph - 0.01 in Snow Light Snow
8:54 AM 14.0 °F -0.8 °F 10.9 °F 88% 29.66 in 1.0 mi SE 13.8 mph - 0.01 in Snow Light Snow
9:06 AM 15.1 °F 1.1 °F 10.9 °F 84% 29.56 in 0.8 mi SE 12.7 mph - 0.00 in Snow Light Snow
9:25 AM 15.1 °F 1.8 °F 12.0 °F 88% 29.56 in 0.2 mi SSE 11.5 mph 19.6 mph 0.01 in Fog , Snow Heavy Snow
9:32 AM 15.1 °F 1.1 °F 12.9 °F 91% 29.56 in 0.2 mi SSE 12.7 mph 19.6 mph 0.01 in Fog , Snow Snow
9:39 AM 15.1 °F 1.8 °F 12.9 °F 91% 29.56 in 0.5 mi SSE 11.5 mph - 0.01 in Fog , Snow Light Snow
9:54 AM 16.0 °F 2.9 °F 12.0 °F 84% 29.64 in 1.0 mi SSE 11.5 mph - 0.01 in Snow Light Snow
10:06 AM 16.0 °F 2.9 °F 12.0 °F 84% 29.54 in 2.5 mi SSE 11.5 mph - 0.00 in Snow Light Snow
10:14 AM 16.0 °F 2.9 °F 12.0 °F 84% 29.54 in 4.0 mi SSE 11.5 mph - 0.00 in   Overcast
10:30 AM 16.0 °F 2.3 °F 12.9 °F 88% 29.53 in 2.5 mi SSE 12.7 mph - 0.00 in Snow Light Snow
10:54 AM 17.1 °F 3.0 °F 14.0 °F 88% 29.60 in 2.0 mi SSE 13.8 mph - 0.00 in Snow Light Snow
11:50 AM 19.4 °F 7.2 °F 15.8 °F 86% 29.47 in 3.0 mi SSE 11.5 mph - 0.00 in   Overcast
11:54 AM 19.0 °F 9.0 °F 15.1 °F 85% 29.55 in 3.0 mi SSE 8.1 mph - 0.00 in   Overcast
12:54 PM 19.9 °F 10.1 °F 16.0 °F 85% 29.50 in 3.0 mi SSE 8.1 mph - N/A   Overcast
1:40 PM 19.9 °F 8.6 °F 17.1 °F 89% 29.39 in 2.5 mi SSE 10.4 mph - N/A   Overcast
1:54 PM 19.9 °F 10.1 °F 17.1 °F 89% 29.47 in 3.0 mi SSE 8.1 mph - N/A   Overcast
2:33 PM 21.0 °F 12.4 °F 18.0 °F 88% 29.39 in 2.0 mi SSE 6.9 mph - N/A   Overcast
2:42 PM 21.0 °F 12.4 °F 18.0 °F 88% 29.38 in 1.5 mi SSE 6.9 mph - N/A   Overcast
2:50 PM 21.2 °F 12.6 °F 19.4 °F 93% 29.39 in 1.2 mi SSE 6.9 mph - N/A   Overcast
2:54 PM 21.0 °F 13.4 °F 19.0 °F 92% 29.47 in 1.0 mi SE 5.8 mph - N/A   Overcast
3:22 PM 21.0 °F 14.6 °F 19.0 °F 92% 29.39 in 1.0 mi SE 4.6 mph - N/A   Overcast
3:54 PM 21.0 °F 14.6 °F 19.9 °F 96% 29.47 in 0.8 mi SE 4.6 mph - 0.00 in Snow Light Snow
4:04 PM 21.0 °F 14.6 °F 19.9 °F 96% 29.40 in 1.0 mi SE 4.6 mph - 0.00 in Snow Light Snow
4:22 PM 21.0 °F 14.6 °F 19.9 °F 96% 29.40 in 0.8 mi SE 4.6 mph - 0.01 in Snow Light Snow
4:30 PM 21.9 °F 15.7 °F 19.9 °F 92% 29.40 in 1.0 mi SE 4.6 mph - 0.01 in Snow Light Snow
4:54 PM 21.9 °F - 21.0 °F 96% 29.48 in 1.0 mi Calm Calm - 0.01 in Snow Light Snow
5:02 PM 21.9 °F - 21.0 °F 96% 29.41 in 0.8 mi Calm Calm - 0.00 in Snow Light Snow
5:26 PM 21.9 °F - 19.9 °F 92% 29.41 in 0.8 mi Calm Calm - 0.01 in Snow Light Snow
5:29 PM 21.9 °F - 19.9 °F 92% 29.41 in 1.0 mi Calm Calm - 0.01 in Snow Light Snow
5:37 PM 21.0 °F 14.6 °F 19.9 °F 96% 29.42 in 1.5 mi SSW 4.6 mph - 0.01 in Snow Light Snow
5:46 PM 23.0 °F 10.1 °F 19.9 °F 88% 29.42 in 2.5 mi West 15.0 mph 20.7 mph 0.01 in Snow Light Snow
5:54 PM 23.0 °F 9.6 °F 19.0 °F 85% 29.50 in 5.0 mi West 16.1 mph - 0.01 in Snow Light Snow
6:30 PM 21.9 °F 9.2 °F 19.0 °F 89% 29.44 in 1.8 mi West 13.8 mph - 0.00 in Snow Light Snow
6:39 PM 21.9 °F 8.7 °F 19.0 °F 89% 29.44 in 3.0 mi West 15.0 mph - 0.00 in Snow Light Snow
6:54 PM 21.9 °F 9.2 °F 19.0 °F 89% 29.51 in 4.0 mi West 13.8 mph - 0.00 in Snow Light Snow
7:01 PM 21.9 °F 9.8 °F 19.0 °F 89% 29.44 in 3.0 mi WNW 12.7 mph - 0.00 in Snow Light Snow
7:35 PM 21.0 °F 9.3 °F 18.0 °F 88% 29.44 in 5.0 mi West 11.5 mph - 0.00 in Snow Light Snow
7:54 PM 21.0 °F 9.9 °F 18.0 °F 88% 29.52 in 6.0 mi WNW 10.4 mph - 0.00 in   Overcast
8:05 PM 21.0 °F 10.6 °F 18.0 °F 88% 29.45 in 6.0 mi WNW 9.2 mph - N/A   Overcast
8:54 PM 21.0 °F 7.6 °F 16.0 °F 81% 29.54 in 6.0 mi WNW 15.0 mph - N/A   Haze
9:54 PM 18.0 °F 3.1 °F 12.0 °F 78% 29.57 in 8.0 mi NW 16.1 mph 24.2 mph 0.00 in   Overcast
10:19 PM 17.1 °F 4.3 °F 10.9 °F 77% 29.50 in 8.0 mi NW 11.5 mph - N/A   Scattered Clouds
10:54 PM 15.1 °F 4.2 °F 10.0 °F 80% 29.58 in 6.0 mi NW 8.1 mph - N/A   Haze
11:10 PM 14.0 °F 2.9 °F 10.0 °F 84% 29.51 in 6.0 mi WNW 8.1 mph - N/A   Mostly Cloudy
11:30 PM 14.0 °F 2.0 °F 10.0 °F 84% 29.51 in 6.0 mi WNW 9.2 mph - N/A   Overcast
11:54 PM 14.0 °F 2.0 °F 10.0 °F 84% 29.59 in 7.0 mi WNW 9.2 mph - N/A   Scattered Clouds